Location: Abraham Lincoln Continuation High School
(33.9711°N, 117.3662°W)
Time: 13:58:54
(UTC+00:00)

Cosmos 158 Rocket - Pass Details

Date: 21 September 2020
Orbit: 699 x 793 km, 74.0° (Epoch: 28 October)

Event Time Altitude Azimuth Distance (km) Brightness Sun altitude
Rises 02:08:35 0° 342° (NNW) 3,243 7.6 -5.1°
Reaches altitude 10° 02:11:00 10° 342° (NNW) 2,299 6.8 -5.6°
Maximum altitude 02:16:13 86° 256° (WSW) 753 4.1 -6.7°
Drops below altitude 10° 02:21:16 10° 166° (SSE) 2,223 6.2 -7.7°
Sets 02:23:33 0° 166° (SSE) 3,126 7.0 -8.2°
